Regional Weather Roundup
Issued by NWS Newport/Morehead, NC

Current Version | Previous Version | Text Only | Print | Product List | Glossary On
Versions: 1 2 3 4 5 6 7 8 9 10 11 12 13 14 15 16 17 18 19 20 21 22 23 24 25 26 27 28 29 30 31 32 33 34 35 36 37 38 39 40 41 42 43 44 45 46 47 48 49 50
000
ASUS42 KMHX 280927
RWRMHX
WEATHER ROUNDUP FOR EASTERN NORTH CAROLINA
NATIONAL WEATHER SERVICE NEWPORT/MOREHEAD CITY NC
500 AM EDT SAT MAR 28 2015

NOTE: "FAIR" INDICATES FEW OR NO CLOUDS BELOW 12,000 FEET
WITH NO SIGNIFICANT WEATHER AND/OR OBSTRUCTIONS TO VISIBILITY

NCZ015>017-031-032-045>047-102-103-281000-
NORTH COAST

CITY           SKY/WX    TMP DP  RH WIND       PRES   REMARKS
EDENTON        PTCLDY    39  36  87 NW12      29.84R
ELIZABETH CITY PTCLDY    39  36  89 W13       29.80R
KITTY HAWK     CLOUDY    42  38  88 NW12G20   29.77R
MANTEO         CLOUDY    42  36  80 NW12G23   29.79R

$$

NCZ045>047-081-094-103-104-281000-
CENTRAL COAST

CITY           SKY/WX    TMP DP  RH WIND       PRES   REMARKS
FRISCO         CLOUDY    43  36  76 NW9G18    29.78R
SWANQUARTER      N/A     39 N/A N/A NW9       29.79R

$$

NCZ095-097-098-100-101-281000-
SOUTHERN COAST

CITY           SKY/WX    TMP DP  RH WIND       PRES   REMARKS
BEAUFORT       MOCLDY    43  38  82 N16       29.84R
CEDAR ISLAND     N/A     45 N/A N/A NW23      29.85R
JACKSONVILLE   PTCLDY    40  37  89 NW7       29.87R
PINEY ISLAND   CLOUDY   N/A N/A N/A NW15      29.83R
WILMINGTON     CLOUDY    44  40  85 W10       29.88R


$$

NCZ011>013-027>030-043-044-078>080-089-090>093-098-281000-
COASTAL PLAIN

CITY           SKY/WX    TMP DP  RH WIND       PRES   REMARKS
AHOSKIE        CLOUDY    38  35  87 N5        29.86R
CLINTON        DRIZZLE   41  40  95 W3        29.89S
ELIZABETHTOWN  RAIN      44  43  98 W7        29.88R
GOLDSBORO      MOCLDY    41  41 100 NW12      29.86R
GREENVILLE     DRIZZLE   41  37  87 NW8       29.89R
HAVELOCK       CLOUDY    41  36  82 NW8       29.85R
KENANSVILLE    LGT RAIN  41  39  94 W5        29.90R
KINSTON        DRIZZLE   41  39  93 CALM      29.88R
NEW BERN       MOCLDY    41  37  86 NW9       29.87R
RICHLANDS      MOCLDY    41  36  81 W3        29.88R
ROCKY MOUNT    LGT RAIN  37  34  89 N16G26    29.90R
WASHINGTON     DRIZZLE   40  37  89 NW6       29.86R
WHITEVILLE     DRIZZLE   45  41  88 W3        29.88S

$$

AMZ130-135-150-152-154-156-158-170-250-252-270-ANZ085-086-088-633-658-670-281000-
MARINE OBSERVATIONS

STATION/POSITION TIME  TEMP    WIND        PRES    WAVE   SWELL
                       AIR SEA DIR/SP/G            HT/PER HT/PER
                 (UTC) (F)     (DEG/KT/KT) (MB)    (FT/S) (FT/S)
CHESAPEAKE LIGHT 0900   42     340/ 26/ 29 1008.5
64 E VA BEACH    0850   44 56  340/ 21/ 27 1005.1   10/ 8
DUCK             0900   42 41  310/ 15/ 18 1007.3
2 E DUCK         0911      42                N/A     5/ 7   2/11
10 NE DUCK       NOT AVBL
OREGON INLET     0900   42 45  300/ 13/ 19 1008.2
HATTERAS CG      0900   44 54  330/ 22/ 25 1008.7
CAPE LOOKOUT     0900   44     330/ 16/ 19 1010.0
BEAUFORT LAB     0900   43 56  340/  9/ 17 1009.6
27 SE WRIGHTSVLE 0900   45 64  350/ 16/ 17 1012.3
5 SE WRIGHTSVLE  0900   46 56  310/ 12/ 17 1011.4
225 S CAPE HAT   0850   66 69  290/ 27/ 35 1006.7   13/ 8
41 SE CHARLESTON 0850   53 68  320/ 17/ 21 1012.1    5/ 8   2/ 8

$$



USA.gov is the U.S. government's official web portal to all federal, state and local government web resources and services.